User: anonymous   Login
Location: Unspecified
(0.0000°N, 0.0000°E)
Time: 00:40:30
(UTC+00:00)
Language:

GEOEYE 1 - Orbit

View from above orbital plane
View from above orbital plane
View from above satellite
View from above satellite

Ground track
Ground track

The orbit data is extracted from the following two-line orbital elements,

1 33331U 08042A   17051.33006889 -.00000093  00000-0 -86418-5 0  9994
2 33331  98.1193 128.2153 0008591 273.6779  86.3442 14.64127070452002
Epoch (UTC): 20 February 2017 07:55:17
Eccentricity: 0.0008591
inclination: 98.1193°
perigee height: 674 km
apogee height: 686 km
right ascension of ascending node: 128.2153°
argument of perigee: 273.6779°
revolutions per day: 14.64127070
mean anomaly at epoch: 86.3442°
orbit number at epoch: 45200

The dashed part of the orbit path shows where the satellite is in the earth's shadow,  

DLR